When you browse on this site, cookies collect data to enhance your experience and personalize the content and advertising you see.
Visit our Privacy Policy to learn more. By continuing to use the site, you agree to this use of cookies and data.

Hourly Weather Paralia

Today, 15 July, Wednesday

Time Temperature Precipitation Wind Pressure Humidity
00:00 +23°C° 0 mm 1 mps 747 mmHg 80%
01:00 +22°C° 0 mm 1 mps 748 mmHg 80%
02:00 +22°C° 0 mm 1 mps 747 mmHg 80%
03:00 +22°C° 0 mm 1 mps 747 mmHg 80%
04:00 +22°C° 0 mm 1 mps 747 mmHg 80%
05:00 +23°C° 0 mm 1 mps 747 mmHg 73%
06:00 +25°C° 0 mm 1 mps 748 mmHg 66%
07:00 +27°C° 0 mm 1 mps 748 mmHg 59%
08:00 +28°C° 0 mm 1 mps 748 mmHg 54%
09:00 +29°C° 0 mm 2 mps 748 mmHg 48%
10:00 +31°C° 0 mm 2 mps 749 mmHg 43%
11:00 +31°C° 0 mm 2 mps 749 mmHg 42%
12:00 +31°C° 0 mm 3 mps 748 mmHg 42%
13:00 +33°C° 0 mm 4 mps 748 mmHg 42%
14:00 +32°C° 0 mm 4 mps 748 mmHg 43%
15:00 +32°C° 0 mm 4 mps 748 mmHg 45%
16:00 +30°C° 0 mm 4 mps 748 mmHg 46%
17:00 +28°C° 0 mm 3 mps 748 mmHg 53%
18:00 +26°C° 0 mm 3 mps 748 mmHg 60%
19:00 +24°C° 0 mm 2 mps 748 mmHg 66%
20:00 +24°C° 0 mm 2 mps 748 mmHg 69%
21:00 +23°C° 0 mm 2 mps 748 mmHg 72%
22:00 +21°C° 0 mm 2 mps 748 mmHg 75%
23:00 +22°C° 0 mm 1 mps 748 mmHg 74%

Tomorrow, 16 July, Thursday

Time Temperature Precipitation Wind Pressure Humidity
00:00 +22°C° 0 mm 1 mps 748 mmHg 74%
01:00 +22°C° 0 mm 1 mps 747 mmHg 74%
02:00 +21°C° 0 mm 1 mps 747 mmHg 74%
03:00 +21°C° 0 mm 1 mps 747 mmHg 73%
04:00 +21°C° 0 mm 1 mps 746 mmHg 73%
05:00 +23°C° 0 mm 1 mps 747 mmHg 65%
06:00 +25°C° 0 mm 1 mps 747 mmHg 57%
07:00 +27°C° 0 mm 1 mps 747 mmHg 49%
08:00 +28°C° 0 mm 2 mps 747 mmHg 45%
09:00 +30°C° 0 mm 2 mps 746 mmHg 42%
10:00 +31°C° 0 mm 3 mps 746 mmHg 38%
11:00 +33°C° 0 mm 3 mps 746 mmHg 38%
12:00 +33°C° 0 mm 4 mps 746 mmHg 38%
13:00 +33°C° 0 mm 5 mps 745 mmHg 39%
14:00 +33°C° 0 mm 4 mps 745 mmHg 41%
15:00 +32°C° 0 mm 4 mps 745 mmHg 44%
16:00 +32°C° 0 mm 4 mps 745 mmHg 47%
17:00 +29°C° 0 mm 3 mps 745 mmHg 54%
18:00 +27°C° 0 mm 3 mps 745 mmHg 62%
19:00 +25°C° 0 mm 2 mps 745 mmHg 70%
20:00 +25°C° 0 mm 2 mps 745 mmHg 72%
21:00 +24°C° 0 mm 1 mps 745 mmHg 74%
22:00 +24°C° 0 mm 1 mps 745 mmHg 75%
23:00 +24°C° 0 mm 1 mps 745 mmHg 74%

Day after tomorrow, 17 July, Friday

Time Temperature Precipitation Wind Pressure Humidity
00:00 +23°C° 0 mm 1 mps 745 mmHg 73%
01:00 +23°C° 0 mm 1 mps 745 mmHg 72%
02:00 +23°C° 0 mm 1 mps 745 mmHg 72%
03:00 +23°C° 0 mm 1 mps 744 mmHg 73%
04:00 +23°C° 0 mm 1 mps 744 mmHg 73%
05:00 +25°C° 0 mm 1 mps 744 mmHg 66%
06:00 +27°C° 0 mm 1 mps 745 mmHg 60%
07:00 +29°C° 0 mm 1 mps 745 mmHg 53%
08:00 +30°C° 0 mm 1 mps 745 mmHg 49%
09:00 +31°C° 0 mm 2 mps 745 mmHg 44%
10:00 +34°C° 0 mm 2 mps 745 mmHg 40%
11:00 +32°C° 0 mm 2 mps 745 mmHg 41%
12:00 +33°C° 0 mm 3 mps 745 mmHg 42%
13:00 +33°C° 0 mm 3 mps 745 mmHg 43%
14:00 +31°C° 0 mm 3 mps 744 mmHg 46%
15:00 +31°C° 0 mm 3 mps 744 mmHg 48%
16:00 +30°C° 0 mm 2 mps 744 mmHg 51%
17:00 +28°C° 0 mm 2 mps 744 mmHg 56%
18:00 +27°C° 0 mm 1 mps 744 mmHg 61%
19:00 +25°C° 0 mm 1 mps 744 mmHg 66%
20:00 +25°C° 0 mm 1 mps 744 mmHg 67%
21:00 +24°C° 0 mm 1 mps 745 mmHg 69%
22:00 +24°C° 0 mm 1 mps 745 mmHg 71%
23:00 +24°C° 0 mm 1 mps 744 mmHg 72%

18 July, Saturday

Time Temperature Precipitation Wind Pressure Humidity
00:00 +23°C° 0 mm 1 mps 744 mmHg 73%
01:00 +23°C° 0 mm 1 mps 744 mmHg 74%
02:00 +23°C° 0 mm 1 mps 744 mmHg 74%
03:00 +23°C° 0 mm 1 mps 744 mmHg 74%
04:00 +23°C° 0 mm 1 mps 744 mmHg 74%
05:00 +25°C° 0 mm 1 mps 744 mmHg 66%
06:00 +25°C° 0 mm 0 mps 744 mmHg 59%
07:00 +26°C° 0 mm 0 mps 744 mmHg 51%
08:00 +30°C° 0 mm 1 mps 744 mmHg 47%
09:00 +31°C° 0 mm 1 mps 744 mmHg 43%
10:00 +34°C° 0 mm 2 mps 744 mmHg 39%
11:00 +34°C° 0 mm 2 mps 744 mmHg 38%
12:00 +34°C° 0 mm 3 mps 744 mmHg 38%
13:00 +34°C° 0 mm 3 mps 744 mmHg 38%
14:00 +33°C° 0 mm 3 mps 744 mmHg 39%
15:00 +33°C° 0 mm 3 mps 744 mmHg 41%
16:00 +31°C° 0 mm 3 mps 743 mmHg 43%
17:00 +29°C° 0 mm 3 mps 744 mmHg 50%
18:00 +27°C° 0 mm 2 mps 744 mmHg 57%
19:00 +25°C° 0 mm 2 mps 744 mmHg 65%
20:00 +25°C° 0 mm 2 mps 744 mmHg 67%
21:00 +24°C° 0 mm 2 mps 744 mmHg 70%
22:00 +24°C° 0 mm 2 mps 744 mmHg 72%
23:00 +24°C° 0 mm 1 mps 744 mmHg 73%

19 July, Sunday

Time Temperature Precipitation Wind Pressure Humidity
00:00 +23°C° 0 mm 1 mps 744 mmHg 74%
01:00 +23°C° 0 mm 1 mps 744 mmHg 75%
02:00 +23°C° 0 mm 1 mps 744 mmHg 74%
03:00 +23°C° 0 mm 1 mps 744 mmHg 74%
04:00 +22°C° 0 mm 1 mps 744 mmHg 73%
05:00 +24°C° 0 mm 1 mps 744 mmHg 66%
06:00 +26°C° 0 mm 1 mps 744 mmHg 58%
07:00 +28°C° 0 mm 1 mps 745 mmHg 51%
08:00 +30°C° 0 mm 1 mps 745 mmHg 46%
09:00 +32°C° 0 mm 1 mps 745 mmHg 40%
10:00 +34°C° 0 mm 2 mps 745 mmHg 35%
11:00 +35°C° 0 mm 2 mps 745 mmHg 35%
12:00 +35°C° 0 mm 3 mps 745 mmHg 35%
13:00 +35°C° 0 mm 3 mps 745 mmHg 35%
14:00 +34°C° 0 mm 3 mps 745 mmHg 37%
15:00 +34°C° 0 mm 4 mps 745 mmHg 38%
16:00 +33°C° 0 mm 4 mps 745 mmHg 40%
17:00 +30°C° 0 mm 3 mps 745 mmHg 48%
18:00 +28°C° 0 mm 3 mps 745 mmHg 57%
19:00 +26°C° 0 mm 2 mps 745 mmHg 65%
20:00 +25°C° 0 mm 2 mps 746 mmHg 68%
21:00 +25°C° 0 mm 2 mps 746 mmHg 70%
22:00 +24°C° 0 mm 1 mps 746 mmHg 72%
23:00 +24°C° 0 mm 1 mps 746 mmHg 72%

20 July, Monday

Time Temperature Precipitation Wind Pressure Humidity
00:00 +24°C° 0 mm 1 mps 746 mmHg 72%
01:00 +24°C° 0 mm 1 mps 745 mmHg 72%
02:00 +24°C° 0 mm 1 mps 745 mmHg 72%
03:00 +23°C° 0 mm 1 mps 745 mmHg 71%
04:00 +23°C° 0 mm 1 mps 745 mmHg 71%
05:00 +25°C° 0 mm 1 mps 745 mmHg 64%
06:00 +27°C° 0 mm 1 mps 745 mmHg 56%
07:00 +29°C° 0 mm 1 mps 746 mmHg 49%
08:00 +31°C° 0 mm 1 mps 746 mmHg 45%
09:00 +32°C° 0 mm 2 mps 746 mmHg 41%
10:00 +35°C° 0 mm 2 mps 746 mmHg 36%
11:00 +35°C° 0 mm 2 mps 746 mmHg 36%
12:00 +35°C° 0 mm 3 mps 746 mmHg 35%
13:00 +36°C° 0 mm 3 mps 745 mmHg 35%
14:00 +35°C° 0 mm 3 mps 745 mmHg 36%
15:00 +35°C° 0 mm 3 mps 745 mmHg 36%
16:00 +35°C° 0 mm 2 mps 745 mmHg 37%
17:00 +31°C° 0 mm 2 mps 745 mmHg 45%
18:00 +29°C° 0 mm 2 mps 745 mmHg 53%
19:00 +27°C° 0 mm 2 mps 745 mmHg 61%
20:00 +27°C° 0 mm 1 mps 745 mmHg 61%
21:00 +26°C° 0 mm 1 mps 746 mmHg 62%
22:00 +26°C° 0 mm 1 mps 746 mmHg 62%
23:00 +26°C° 0 mm 1 mps 746 mmHg 62%
Show more